Weather Roundup
Issued by NWS

Home | Current Version | Previous Version | Graphics & Text | Print | Product List | Glossary Off
Versions: 1 2 3 4 5 6 7 8 9 10 11 12 13 14 15 16 17 18 19 20 21 22 23 24 25 26 27 28 29 30 31 32 33 34 35 36 37 38 39 40 41 42 43 44 45 46 47 48 49 50

000
NZUS93 KARX 281259
HRRWXR

CURRENT HOURLY OBSERVATIONS ACROSS
MUCH OF THE UPPER MISSISSIPPI VALLEY
NATIONAL WEATHER SERVICE LA CROSSE WI
800 AM CDT THU AUG 28 2014


...SOUTHEAST MINNESOTA...


CITY           SKY/WX    TMP DP  RH WIND       PRES   REMARKS
ROCHESTER      PTSUNNY   62  59  90 SE9       30.11S
ROCHESTER/MAYO FAIR      60  58  91 SE9       30.10S
WINONA         MOSUNNY   61  57  88 SE7       30.11S
AUSTIN         CLOUDY    61  57  88 E5        30.09R
ALBERT LEA     CLOUDY    63  59  88 SE6       30.08R
DODGE CENTER   PTSUNNY   61  59  94 SE7       30.09F
PRESTON        MOSUNNY   60  60 100 CALM      30.11S
OWATONNA       PTSUNNY   63  57  82 SE9       30.08S
FARIBAULT      PTSUNNY   66  57  72 E6        30.08S
$$

...ELSEWHERE IN MINNESOTA...


CITY           SKY/WX    TMP DP  RH WIND       PRES   REMARKS
MINNEAPOLIS    PTSUNNY   64  57  78 SE7       30.09R
INTNL FALLS    FOG       50  50 100 CALM      30.08S VSB 3/4
DULUTH         SUNNY     57  52  83 S5        30.12S
RED WING       SUNNY     63  55  77 E6        30.09S
REDWOOD FALLS  CLOUDY    63  59  87 SE12      30.02F
MANKATO        CLOUDY    63  55  77 SE10      30.06S
WORTHINGTON    CLOUDY    64  63  94 SE7       30.03S
FAIRMONT       CLOUDY    63  57  82 SE8       30.05S
$$

...SOUTHWEST WISCONSIN...


CITY           SKY/WX    TMP DP  RH WIND       PRES   REMARKS
LA CROSSE      MOSUNNY   62  58  86 E6        30.11R
PRAIRIE DU CHI SUNNY     62  60  93 SE3       30.10S
BOSCOBEL       PTSUNNY   63  61  93 VRB3      30.13R FOG
LONE ROCK      PTSUNNY   64  61  88 E7        30.13S FOG
PLATTEVILLE    MOSUNNY   63  62  97 CALM      30.12F
FORT MC COY    SUNNY     58  56  91 CALM      30.12S
VIROQUA        CLOUDY    58  58 100 SE6       30.13S VSB 1/4
WIS DELLS      SUNNY     62  60  94 CALM      30.14S
$$

...ELSEWHERE IN WISCONSIN...


CITY           SKY/WX    TMP DP  RH WIND       PRES   REMARKS
MILWAUKEE      MOSUNNY   66  56  70 SE12      30.16R
MADISON        MOSUNNY   64  58  80 SE7       30.14S
GREEN BAY      MOSUNNY   61  58  90 SE5       30.16S
EAU CLAIRE     NOT AVBL
BLACK RVR FLS  FAIR      56  55  94 CALM      30.13S
MEDFORD        SUNNY     51  49  93 E3        30.15S
WAUSAU         CLOUDY    52  51  97 E7        30.15R FOG
WIS RAPIDS     FOG       56  55  97 E3        30.16R VSB 1/4
MARSHFIELD     SUNNY     57  53  86 E7        30.14R
RICE LAKE      SUNNY     56  49  78 E3        30.15R
$$

...NORTHEAST IOWA...


CITY           SKY/WX    TMP DP  RH WIND       PRES   REMARKS
WATERLOO       CLOUDY    66  62  87 SE8       30.07R
DUBUQUE        PTSUNNY   64  62  93 SE8       30.11S
DECORAH        MOSUNNY   61  61 100 SE6       30.10S
MASON CITY     LGT RAIN  63  61  93 SE6       30.09R
CHARLES CITY   CLOUDY    64  61  88 SE7G14    30.09S
OELWEIN        CLOUDY    64  61  88 SE10      30.10S
$$

...ELSEWHERE IN IOWA...


CITY           SKY/WX    TMP DP  RH WIND       PRES   REMARKS
DES MOINES     LGT RAIN  67  65  93 E8        30.01F FOG
IOWA CITY      CLOUDY    67  61  81 E8        30.08S
FORT DODGE     CLOUDY    64  63  94 SE7       30.04F
MARSHALLTOWN   LGT RAIN  65  63  93 E6        30.06S
CEDAR RAPIDS   CLOUDY    66  61  84 SE9       30.07S
$$

...NORTHERN ILLINOIS...


CITY           SKY/WX    TMP DP  RH WIND       PRES   REMARKS
CHICAGO-OHARE  MOSUNNY   68  54  60 E13       30.14S
DUPAGE         SUNNY     68  60  75 E6        30.14S
CHICAGO-MIDWAY PTSUNNY   69  59  70 E12       30.14S
MOLINE         PTSUNNY   67  61  81 E12       30.09S
ROCKFORD       MOSUNNY   66  60  81 SE9       30.14F
STERLING       MOSUNNY   66  61  82 E7        30.12R
PEORIA         CLOUDY    69  60  73 E7        30.10S
$$

NOTE: "FAIR" INDICATES FEW OR NO CLOUDS BELOW 12,000 FEET WITH NO
SIGNIFICANT WEATHER AND/OR OBSTRUCTIONS TO VISIBILITY. WIND
SPEEDS ARE IN MILES-PER-HOUR.



USA.gov is the U.S. government's official web portal to all federal, state and local government web resources and services.